This is the latest recevied weather packets stored in our database for station/object KA3RQR. If no packets are shown the sender has not sent any weather packets the latest 10 day(s).
| Time | Temp. | Humidity | Pressure | Rain* | Wind** | Luminosity | Snow |
|---|---|---|---|---|---|---|---|
| 1777832248 | 13.89° C | 42% | 1016.5 hPa | 0 mm | - | 104 W/m² | - |
| 1777831945 | 13.89° C | 37% | 1016.3 hPa | 0 mm | - | 68 W/m² | - |
| 1777831641 | 13.33° C | 40% | 1016.3 hPa | 0 mm | - | 58 W/m² | - |
| 1777831340 | 13.89° C | 40% | 1016.3 hPa | 0 mm | - | 77 W/m² | - |
| 1777831036 | 13.89° C | 43% | 1016.5 hPa | 0 mm | - | 111 W/m² | - |
| 1777830734 | 13.89° C | 39% | 1016.3 hPa | 0 mm | - | 130 W/m² | - |
| 1777830429 | 13.89° C | 40% | 1016.4 hPa | 0 mm | - | 83 W/m² | - |
| 1777830128 | 13.33° C | 42% | 1016.5 hPa | 0 mm | - | 99 W/m² | - |
| 1777829827 | 13.89° C | 39% | 1016.5 hPa | 0 mm | - | 115 W/m² | - |
| 1777829524 | 13.33° C | 43% | 1016.4 hPa | 0 mm | - | 138 W/m² | - |
| 1777829221 | 12.78° C | 39% | 1016.6 hPa | 0 mm | - | 88 W/m² | - |
| 1777828918 | 12.78° C | 38% | 1016.7 hPa | 0 mm | - | 92 W/m² | - |
| 1777828615 | 12.78° C | 43% | 1016.6 hPa | 0 mm | - | 71 W/m² | - |
| 1777828312 | 13.89° C | 40% | 1016.8 hPa | 0 mm | - | 101 W/m² | - |
| 1777828009 | 12.78° C | 41% | 1016.7 hPa | 0 mm | - | 71 W/m² | - |
| 1777827706 | 12.78° C | 44% | 1016.7 hPa | 0 mm | - | 58 W/m² | - |
| 1777827403 | 12.78° C | 42% | 1016.9 hPa | 0 mm | - | 52 W/m² | - |
| 1777827099 | 12.78° C | 43% | 1016.7 hPa | 0 mm | - | 53 W/m² | - |
| 1777826796 | 12.78° C | 41% | 1016.8 hPa | 0 mm | - | 56 W/m² | - |
| 1777826493 | 12.22° C | 40% | 1016.7 hPa | 0 mm | - | 65 W/m² | - |
| 1777826190 | 11.67° C | 43% | 1017 hPa | 0 mm | - | 63 W/m² | - |
| 1777825887 | 11.67° C | 41% | 1016.8 hPa | 0 mm | - | 66 W/m² | - |
| 1777825584 | 12.22° C | 40% | 1016.9 hPa | 0 mm | - | 44 W/m² | - |
| 1777825282 | 12.22° C | 43% | 1017.1 hPa | 0 mm | - | 65 W/m² | - |
| 1777824978 | 12.22° C | 41% | 1017.2 hPa | 0 mm | - | 256 W/m² | - |
* Rain latest hour (hover to see other rain measurements)
** Current wind speed in m/s (hover to see current wind gust speed)